Wind_Speed
11 9 10 11 11 14 15 13 14 13 10 10 11 10 10 9 8 11 11 11 10 8 6 7 8 10 11 11 12 12 11 11 11 11 10 11 12 11 11 10 10 10 10 12 14 15 14 13 13 12 11 11 11 11 11 11 11 10 10 10 10 9 8 8 7 6 6 5 4 4 5 6 6 5 4 6 7 7 7 6 7 7 8 8 7 8
12 10 12 14 14 15 14 13 15 12 6 6 10 9 8 8 9 13 14 12 10 7 4 7 7 11 12 11 13 13 12 11 11 11 11 12 12 12 12 12 11 9 10 12 13 14 15 14 13 12 11 12 12 12 12 11 11 10 10 9 9 9 7 7 6 5 4 3 3 3 3 4 5 4 4 5 5 5 6 7 6 6 6 7 8 9
12 11 14 16 14 14 15 15 15 9 7 8 9 9 8 8 9 12 13 11 8 6 5 8 7 9 13 12 12 13 12 10 11 11 11 11 12 12 12 13 13 12 12 13 13 14 15 15 15 13 12 13 13 13 12 11 11 10 10 9 8 8 7 6 4 4 2 2 2 1 1 3 3 3 2 2 3 3 5 6 6 4 4 7 8 9
10 12 15 17 16 14 13 14 12 8 8 9 8 8 8 9 9 7 9 12 10 9 6 8 8 7 11 12 12 12 12 11 12 13 12 11 11 12 13 13 13 14 13 13 13 14 15 15 15 14 13 14 13 13 13 12 11 10 9 9 8 7 6 5 4 4 3 2 2 1 2 2 2 3 2 1 2 3 4 6 6 4 6 7 7 8
12 14 16 17 16 12 9 10 11 9 8 9 11 9 9 10 8 5 7 11 11 10 8 7 7 5 7 10 10 10 11 11 12 13 13 12 12 12 13 13 13 13 13 14 13 13 14 15 16 15 15 14 14 13 13 12 11 10 9 9 8 7 6 5 5 4 2 1 1 0 2 3 2 3 3 2 4 4 4 6 6 5 6 7 7 8
12 16 18 18 14 12 12 12 12 12 8 10 13 12 13 11 9 10 11 10 7 8 9 9 7 4 7 8 8 8 10 10 10 12 12 12 13 13 13 13 14 14 13 13 13 13 15 16 16 16 16 15 14 13 12 12 11 10 10 9 8 7 6 5 4 2 1 0 1 2 3 3 3 3 3 3 5 5 5 6 6 6 6 6 7 7
10 15 17 15 11 13 15 13 13 14 10 7 12 14 16 9 4 10 10 9 5 8 10 12 8 4 7 9 10 11 12 11 11 13 14 12 12 13 13 13 14 14 14 13 13 14 15 17 17 17 17 16 15 14 13 12 11 11 11 10 9 7 6 5 4 2 1 1 2 3 3 3 3 3 2 3 4 3 4 5 5 6 6 6 6 6
10 13 14 12 13 14 13 11 12 14 11 3 6 15 12 8 7 11 5 5 8 10 9 11 9 7 7 9 12 14 14 15 15 15 16 15 14 15 14 14 15 15 14 14 14 14 15 17 18 18 18 17 15 15 13 13 12 12 12 11 9 8 7 6 4 2 1 1 2 3 3 3 2 2 3 4 4 3 4 4 4 5 6 6 6 6
11 13 15 16 15 11 11 13 13 15 12 2 3 8 11 8 11 10 5 6 9 7 5 6 7 8 7 7 11 15 16 16 16 17 16 17 17 17 16 16 16 16 15 14 14 14 16 18 19 19 18 17 16 16 14 14 13 13 13 11 10 9 7 6 4 3 2 1 1 2 2 2 2 3 4 5 5 4 3 4 4 5 6 6 6 7
12 12 14 16 13 11 14 16 17 17 10 4 1 5 6 7 10 9 8 9 8 5 5 7 8 7 7 8 10 12 12 13 14 15 15 17 19 19 18 18 17 16 14 15 14 14 17 19 19 19 19 18 17 16 15 14 14 14 13 12 11 10 7 6 5 4 3 2 1 1 1 2 3 4 5 5 5 4 4 4 5 5 5 6 6 7
13 13 13 14 13 12 14 10 11 14 7 4 6 6 5 7 7 6 7 7 6 6 8 12 14 11 7 8 9 11 12 11 11 13 15 17 19 20 19 18 19 17 14 14 15 15 18 20 20 19 19 19 17 17 16 15 15 15 14 13 12 9 7 6 5 5 4 3 2 1 2 2 4 5 5 4 4 4 4 4 5 5 6 6 7 7
11 13 11 12 11 9 11 8 6 9 7 4 8 8 6 7 4 4 6 5 7 8 8 14 16 14 8 7 7 8 12 12 11 12 16 19 20 19 19 19 19 17 16 15 15 15 17 18 19 20 19 19 18 18 18 17 16 15 14 13 12 9 8 7 6 5 3 2 2 1 2 2 3 4 4 4 4 3 4 5 5 6 6 7 7 7
10 13 12 12 10 8 10 11 8 9 9 9 9 7 7 6 5 6 7 6 7 8 8 11 12 10 7 7 9 9 9 12 13 11 12 16 19 20 19 19 18 17 17 17 15 15 15 15 17 19 20 20 19 19 19 18 16 15 14 13 12 10 9 8 6 4 3 3 3 2 2 2 3 3 3 3 3 3 3 4 5 6 7 7 8 8
9 13 17 14 11 12 12 9 8 9 10 10 9 8 8 6 6 7 7 6 8 9 9 8 6 6 7 6 9 11 9 8 8 9 9 11 16 19 20 19 18 18 18 16 15 15 14 14 16 19 21 21 19 20 20 18 17 15 14 13 12 11 10 8 6 4 4 4 3 2 3 2 2 3 3 3 3 3 3 4 5 7 7 8 8 8
11 12 15 14 11 13 14 10 9 9 10 10 9 8 7 7 6 6 6 6 7 7 7 8 4 5 6 2 3 3 1 7 7 5 8 8 10 14 18 19 18 19 18 16 16 16 15 17 20 20 20 20 19 21 20 18 17 16 14 14 13 12 11 8 7 5 4 4 3 3 3 3 3 3 3 3 2 3 4 5 6 7 7 8 8 9
12 10 14 16 14 15 16 12 11 10 9 9 8 8 7 8 8 5 5 6 5 5 4 6 4 6 5 1 2 2 2 5 6 4 7 9 9 11 13 18 18 17 17 17 17 17 17 19 22 21 21 20 19 20 20 18 18 17 15 15 13 12 11 9 7 6 5 4 3 3 3 3 3 3 3 3 3 3 4 5 6 7 8 8 8 9
10 10 17 19 16 17 17 14 12 10 8 7 8 10 7 6 7 7 7 6 6 7 4 5 6 6 5 6 10 10 7 8 7 6 9 10 11 12 13 15 17 16 15 16 16 17 17 17 20 19 19 21 22 21 20 19 19 18 17 16 14 13 11 9 7 6 5 4 4 4 4 3 3 4 4 4 3 3 4 5 6 7 7 8 8 8
9 7 19 21 16 16 17 15 13 13 11 6 7 9 6 3 5 6 5 5 6 7 6 6 8 6 5 5 7 11 7 7 8 8 8 8 11 13 13 13 15 15 14 15 16 17 17 16 19 20 20 22 24 23 21 21 20 19 17 16 15 13 12 10 8 7 6 4 4 4 4 4 4 4 4 4 4 4 5 5 6 7 7 8 8 8
9 5 14 20 16 14 15 14 12 12 14 9 4 7 8 5 5 5 5 5 6 6 6 7 8 7 6 4 7 10 7 5 6 6 6 8 10 11 12 13 15 16 16 16 15 15 15 16 19 23 23 23 25 25 25 24 21 19 18 16 15 14 12 10 9 7 6 5 5 4 4 4 4 5 5 5 5 5 6 6 6 7 7 8 8 9
10 7 8 16 17 14 11 11 10 10 12 10 6 5 6 5 5 6 5 6 6 6 6 6 5 5 4 4 8 8 4 2 3 5 5 7 8 9 11 12 13 15 14 14 15 15 15 18 21 24 25 26 28 27 27 24 22 20 18 16 15 14 12 11 9 8 6 5 5 5 5 5 5 5 6 6 6 6 6 7 8 8 9 9 9 9
8 7 6 11 16 14 9 10 11 11 11 10 8 7 8 6 5 4 6 7 7 5 5 5 5 2 3 4 4 4 3 2 4 4 5 6 7 7 9 10 11 13 13 13 14 14 15 19 22 23 25 28 29 28 27 25 23 20 19 17 16 15 13 11 10 9 7 6 6 6 6 6 6 6 7 7 7 7 7 8 9 10 10 9 10 11
6 7 7 9 11 11 10 13 15 16 14 12 10 10 10 8 6 6 7 8 7 6 5 5 6 2 7 7 5 5 2 2 2 3 4 5 5 6 7 9 11 12 14 15 16 15 15 19 22 21 23 28 28 29 29 27 23 21 19 18 16 15 14 12 11 10 8 7 6 6 7 7 7 7 7 7 7 7 8 9 10 10 10 10 11 11
7 7 8 9 9 10 13 16 19 20 17 13 12 12 11 10 8 7 7 7 6 7 7 6 7 2 7 6 4 6 3 3 2 3 4 3 4 5 6 8 10 12 13 15 18 17 17 20 22 23 25 28 28 28 28 25 23 21 20 19 16 15 13 11 11 11 10 8 7 7 7 7 7 8 8 8 8 9 9 10 11 10 9 10 11 11
9 8 9 9 8 10 13 16 18 18 15 12 12 12 12 11 10 9 8 7 5 6 6 5 7 3 5 5 5 5 1 2 1 3 3 3 4 4 5 7 8 12 14 15 17 17 16 19 20 22 26 28 26 26 25 24 22 20 19 18 16 15 13 10 9 10 10 9 8 8 8 8 8 8 9 9 9 9 10 11 11 9 8 10 12 12
8 8 9 9 9 10 10 10 12 14 12 11 10 12 14 14 14 12 10 6 4 7 8 7 7 3 5 6 5 3 2 3 2 4 4 3 4 5 5 6 7 11 14 16 17 16 16 18 18 20 24 25 25 26 25 23 21 20 19 17 16 14 13 12 9 9 9 9 8 8 9 9 9 9 9 9 9 10 11 11 11 10 10 12 13 13
10 8 9 10 10 11 11 9 9 10 10 10 12 16 17 17 17 13 9 7 6 8 10 10 7 3 8 7 5 3 2 1 3 4 3 3 4 5 5 5 7 9 12 16 18 17 17 17 15 18 23 25 25 26 24 23 22 20 18 17 15 12 12 12 10 9 9 9 8 8 9 9 9 9 10 10 10 11 11 11 11 11 12 12 13 14
8 7 11 12 12 13 11 10 10 11 12 13 15 19 18 18 18 14 10 10 7 7 10 9 7 5 6 7 4 3 3 2 4 6 6 5 5 6 5 5 6 8 11 13 15 16 17 17 17 20 24 26 27 26 25 24 23 20 19 18 14 11 10 11 10 10 9 9 8 8 9 9 9 10 10 9 10 10 11 11 11 11 12 13 14 16
5 10 14 16 17 18 15 12 15 18 18 17 18 21 21 20 19 16 14 13 9 9 10 7 6 11 12 10 8 7 5 4 4 6 8 7 6 6 5 6 7 10 12 12 13 15 16 17 17 19 23 26 27 26 25 24 23 21 20 17 13 11 12 11 11 11 10 9 9 9 9 9 9 10 10 9 10 10 11 10 10 11 12 14 15 15
7 11 12 14 16 18 19 19 19 18 17 17 18 21 22 21 21 18 16 16 13 11 9 3 4 11 12 10 10 10 8 7 7 7 8 8 8 8 8 9 11 13 14 14 14 15 16 17 17 18 22 26 26 26 26 24 22 21 18 15 13 14 14 12 12 12 11 10 10 10 10 9 9 10 9 9 10 11 11 10 10 11 12 14 14 15
9 9 11 15 17 20 22 24 23 18 15 16 19 20 20 20 21 19 18 19 18 16 13 9 9 13 11 8 12 12 8 7 8 7 8 10 10 11 11 11 12 14 15 14 15 16 16 17 18 19 22 25 26 26 25 23 22 20 17 14 16 16 14 12 12 12 11 11 11 11 11 10 10 10 10 10 10 11 11 11 11 12 13 13 14 15
9 8 12 16 15 16 20 22 21 18 16 19 21 21 20 19 20 20 18 18 18 16 14 13 13 13 8 6 11 10 3 2 6 8 10 11 11 12 12 11 11 13 14 15 16 16 17 18 19 19 22 25 27 27 25 23 22 20 18 18 19 17 14 13 13 13 12 12 12 12 11 10 10 11 11 11 11 12 12 12 11 12 13 13 14 15
8 8 10 11 9 10 16 17 15 15 19 22 22 21 21 20 19 17 15 16 16 13 10 9 10 9 6 6 9 6 3 6 9 9 9 9 10 12 11 9 9 10 12 14 15 16 18 20 20 20 23 27 28 27 26 24 23 21 19 20 18 16 15 14 13 12 12 12 12 12 11 10 10 11 11 11 12 12 12 12 12 12 13 13 13 14
8 9 8 9 8 10 16 16 14 16 18 17 16 19 21 20 18 17 16 15 12 8 7 7 7 7 5 5 6 6 7 10 9 8 8 8 9 10 9 9 10 10 11 12 13 16 18 19 20 23 26 28 30 29 27 26 24 22 21 20 16 15 15 14 13 13 13 13 13 12 12 11 11 11 11 12 12 13 13 12 12 12 12 12 12 13
10 10 8 7 7 10 15 15 13 15 14 11 11 15 17 17 17 17 15 12 6 3 6 9 8 7 5 4 5 8 9 9 9 8 8 8 9 10 10 11 10 10 10 11 12 15 16 16 18 24 28 29 30 30 28 26 23 21 20 18 16 16 14 14 14 13 13 15 14 13 12 11 11 12 12 12 12 13 13 13 12 12 12 12 12 12
11 11 9 7 7 10 11 11 12 13 12 10 9 10 10 12 15 15 14 12 9 8 10 11 10 9 7 5 6 8 8 7 8 9 9 9 9 9 10 10 8 8 9 10 12 13 14 15 17 21 25 28 30 28 26 24 22 20 18 17 17 17 15 14 13 13 15 15 14 14 13 12 12 12 11 12 13 13 13 13 12 11 11 12 12 12
9 9 8 7 8 9 8 10 10 6 5 6 6 7 8 10 12 14 12 12 12 11 11 11 10 9 8 7 7 7 6 6 8 9 10 10 9 8 9 8 7 8 9 9 11 12 14 16 19 21 23 26 27 26 24 22 20 19 18 18 17 17 16 15 14 15 16 16 16 15 14 13 12 12 12 12 13 13 13 12 11 11 12 13 13 12
8 8 7 8 8 8 9 11 9 5 4 6 6 7 8 8 9 9 9 10 10 10 9 9 9 8 7 7 7 4 3 5 8 10 11 10 8 7 8 6 6 6 7 9 11 13 15 17 19 22 24 25 26 25 23 21 20 18 18 18 18 17 16 16 17 17 17 18 18 16 14 13 12 12 12 12 13 14 13 11 11 12 12 13 12 12
9 8 7 7 7 8 10 11 10 9 9 8 8 7 7 8 7 5 6 7 8 8 9 9 9 7 5 7 7 2 1 6 9 8 6 7 7 6 6 5 4 5 7 9 11 14 16 17 19 24 26 26 25 23 21 20 19 18 17 17 17 18 18 18 18 19 19 19 18 15 13 12 12 12 11 12 13 13 11 11 12 12 12 12 13 13
12 10 8 9 9 9 11 10 9 10 9 7 9 10 12 12 7 4 5 7 7 9 12 11 9 6 5 6 5 2 3 7 7 3 2 4 4 5 5 5 4 6 8 10 12 14 16 18 21 24 25 25 24 23 21 20 18 17 17 17 17 17 18 19 19 19 18 18 17 15 13 11 12 12 12 12 13 12 10 11 12 12 12 13 14 14
13 10 9 11 10 9 10 9 8 8 6 5 9 9 8 9 6 6 7 6 3 4 5 4 5 4 4 5 4 3 5 7 6 4 1 3 4 4 5 5 5 8 9 11 13 15 17 19 21 23 24 24 23 22 19 18 17 17 17 17 18 17 18 18 17 17 17 16 16 15 13 11 12 12 11 12 12 11 10 11 12 12 12 14 16 17
11 10 9 11 11 11 11 10 9 7 2 1 5 6 5 7 7 7 6 2 2 1 1 2 3 4 3 4 5 4 5 7 6 6 6 6 4 5 6 7 8 9 10 12 15 16 18 20 22 23 24 23 22 20 18 17 17 16 16 17 17 18 17 15 13 15 17 16 16 15 13 12 11 10 10 12 12 10 10 11 11 11 12 15 17 17
10 9 9 10 10 10 10 10 11 8 1 1 5 6 6 8 7 4 2 2 0 1 1 2 5 5 4 6 6 5 7 9 7 6 9 8 5 6 8 8 9 10 11 13 16 18 18 19 21 23 22 21 20 18 15 15 14 14 15 16 17 19 19 16 14 15 17 16 16 16 13 11 10 9 11 13 11 9 9 11 11 11 12 15 17 15
8 7 9 10 9 9 10 11 11 6 1 2 5 5 4 5 3 2 2 1 1 2 2 2 3 5 6 8 9 8 10 12 9 8 9 5 3 5 8 9 9 10 12 15 17 18 18 18 20 22 21 18 18 17 16 15 15 15 14 15 17 20 20 18 16 15 16 17 17 16 13 11 10 9 10 11 9 8 10 11 11 11 14 16 16 14
6 7 8 6 5 8 8 7 4 1 3 3 2 2 1 1 2 3 1 2 1 2 3 4 4 5 6 9 10 10 12 13 11 9 6 3 3 6 8 9 10 11 13 15 16 17 17 18 19 20 18 16 15 15 14 14 14 14 14 17 22 23 22 19 17 16 17 17 15 13 11 9 7 8 9 8 7 8 10 11 10 12 14 14 14 13
3 3 4 3 3 3 1 1 3 3 2 2 2 1 1 2 3 3 3 3 3 3 4 5 7 7 8 9 10 9 11 13 11 8 7 7 8 9 8 9 10 10 12 13 14 14 14 15 16 16 14 8 4 3 5 5 7 11 14 17 19 18 16 14 13 13 13 12 11 11 9 7 5 7 8 7 6 8 10 10 11 12 13 13 13 12
1 1 2 2 1 2 3 2 3 3 1 1 3 2 3 4 5 5 5 5 4 5 6 7 8 9 9 10 10 9 11 13 11 9 10 10 9 8 7 8 9 9 10 10 11 11 12 13 14 13 7 5 6 4 2 1 5 9 11 9 7 7 6 5 6 8 10 11 10 9 8 7 8 8 8 5 5 8 10 11 12 12 12 13 14 13
4 4 4 4 2 2 2 3 2 2 0 1 2 4 6 7 7 7 6 5 6 7 7 7 8 10 11 11 11 10 11 13 12 11 11 9 8 8 7 6 8 8 7 8 9 8 8 9 10 10 6 5 1 1 1 3 7 9 8 6 4 3 3 5 7 9 10 9 8 7 7 6 6 5 4 4 7 10 12 11 12 13 13 13 14 14
3 1 5 7 6 4 4 3 1 1 1 2 3 4 6 7 8 8 7 6 6 7 8 8 8 10 11 11 12 11 12 13 11 9 7 4 4 5 5 7 9 11 11 10 10 9 8 5 5 5 5 5 4 3 2 4 8 7 4 4 5 3 3 7 8 9 9 8 7 7 6 4 3 3 5 7 9 11 12 10 12 14 11 10 10 10
1 1 3 5 6 5 3 2 1 2 5 5 6 7 7 7 8 9 9 8 8 8 9 10 10 9 10 12 11 7 8 9 5 4 4 3 4 2 4 7 11 12 12 11 10 11 11 9 6 6 6 5 4 3 2 1 2 4 5 5 4 3 4 7 7 7 7 7 7 8 6 3 3 5 6 8 9 8 7 9 12 13 9 8 9 8
2 5 4 4 7 5 1 4 3 3 4 2 6 8 8 8 8 8 9 9 10 11 10 11 11 8 9 10 7 3 4 5 4 7 6 4 5 3 4 7 11 11 10 11 11 11 12 11 9 8 7 5 5 4 3 3 4 6 8 6 2 1 4 6 7 7 7 6 7 8 6 5 6 6 6 9 10 8 4 6 10 12 8 5 7 7
2 4 3 3 4 1 6 7 6 5 4 4 7 8 8 7 7 8 9 10 11 11 11 12 11 8 6 6 6 3 2 2 4 5 7 7 7 5 2 4 10 9 6 9 11 10 11 11 9 8 8 5 4 5 3 3 4 5 6 4 1 1 4 7 7 7 7 7 7 6 5 6 7 7 8 9 10 9 6 4 4 4 5 4 4 4
Wind_Direction
198 197 200 212 199 203 213 208 214 215 193 185 206 222 196 175 183 191 183 161 177 219 198 151 143 152 164 170 171 168 168 173 171 169 167 163 164 167 174 172 168 172 169 167 169 168 168 167 167 165 164 165 163 165 166 169 172 175 179 180 182 187 196 204 206 208 210 212 223 241 257 253 245 250 251 255 253 242 257 278 280 282 270 265 276 279
204 207 203 210 208 202 210 218 223 235 259 216 205 218 207 187 192 187 169 154 179 227 197 151 163 171 171 176 176 171 173 180 176 174 175 171 167 165 170 170 167 174 172 165 167 171 171 169 168 168 169 168 165 165 167 169 172 175 179 182 186 188 195 205 208 220 224 213 225 237 257 269 267 260 249 261 275 274 283 302 301 287 273 277 280 272
205 218 206 206 216 204 198 215 224 239 273 254 216 208 208 193 191 183 161 150 177 225 187 167 199 183 167 181 182 174 180 180 178 181 180 178 171 166 171 171 169 174 169 161 168 177 175 170 169 171 174 169 166 167 168 170 170 173 179 182 187 185 188 198 204 212 200 169 204 221 247 281 299 304 292 285 298 289 290 302 300 292 297 295 287 279
198 220 211 203 215 211 197 208 218 219 224 240 233 208 211 200 184 179 167 164 184 226 208 175 209 195 164 182 184 180 188 178 179 185 181 183 179 172 176 173 170 171 165 165 175 178 174 172 170 172 174 169 167 168 168 171 171 173 176 174 177 173 171 177 179 182 177 181 208 207 254 283 326 333 328 327 307 299 305 302 293 300 306 299 295 293
200 211 215 211 209 204 204 205 211 221 207 222 236 219 218 209 189 205 195 172 184 223 230 195 204 197 172 186 183 190 197 181 183 188 183 183 181 182 180 172 173 172 167 171 178 175 171 172 171 171 174 169 168 169 170 171 169 168 165 163 166 161 157 161 161 164 176 212 223 296 303 309 332 327 321 335 325 316 316 311 308 312 308 306 310 307
208 201 209 217 200 186 210 210 204 223 212 206 226 233 237 213 178 203 200 174 188 222 224 217 220 193 180 193 192 203 204 189 190 192 191 190 185 188 182 174 177 174 169 176 180 177 172 173 171 171 174 172 170 171 169 167 163 161 159 159 161 156 154 151 145 145 117 97 358 344 330 328 329 327 338 340 332 327 325 322 319 315 312 318 319 312
216 196 198 210 194 188 213 215 199 217 229 207 197 215 251 264 204 221 200 158 210 238 209 208 227 215 188 204 213 213 205 198 204 200 198 198 192 194 189 179 180 177 173 178 185 182 174 173 173 172 176 175 171 170 166 161 160 159 156 156 155 149 147 142 134 129 64 14 347 339 332 334 326 321 339 327 317 319 323 322 317 316 316 321 324 322
203 186 183 194 200 197 211 214 193 207 230 255 174 185 219 266 256 252 231 161 234 247 203 193 222 236 213 205 206 209 207 203 210 207 201 202 198 199 198 186 183 182 177 179 185 184 176 176 177 175 177 177 172 168 165 162 160 158 155 153 152 147 145 145 144 143 107 328 319 324 319 315 308 312 316 307 303 312 320 319 316 319 319 320 324 326
178 184 184 193 207 198 205 211 189 204 220 21 15 192 187 222 243 251 246 222 239 248 214 198 230 250 240 209 197 203 209 207 211 211 204 204 202 200 201 194 188 185 181 182 186 185 179 177 179 178 179 179 174 168 167 166 161 157 155 152 151 150 147 149 153 165 168 201 272 283 297 298 298 315 316 311 317 321 313 312 312 315 316 317 320 322
170 195 192 192 206 192 203 213 188 198 216 114 117 233 178 213 240 236 233 235 226 219 236 227 220 236 248 234 211 204 213 213 206 205 208 209 204 201 201 196 191 187 184 185 187 188 182 180 182 181 180 181 174 169 170 167 161 158 155 154 154 152 152 156 161 167 169 170 200 235 265 294 308 316 314 313 316 312 307 310 309 310 310 308 309 311
166 187 194 192 209 199 197 210 175 187 214 127 172 212 191 211 233 231 240 257 243 225 240 238 221 213 235 246 224 199 203 220 213 202 209 214 207 201 200 199 193 187 187 187 189 190 184 183 185 182 181 181 173 170 171 168 164 159 156 158 157 155 157 161 166 170 176 188 201 232 274 296 314 315 311 309 306 304 307 307 309 312 308 303 303 303
163 175 192 193 212 208 176 168 164 179 195 198 200 203 196 198 204 231 234 242 254 247 242 244 226 204 214 251 244 206 188 198 217 219 212 209 207 202 199 201 196 188 188 189 189 190 185 184 185 184 183 179 173 171 172 170 166 161 159 161 159 159 163 165 174 184 193 213 215 236 288 300 310 310 305 304 301 302 307 308 312 314 308 306 305 302
179 185 194 191 202 216 184 172 182 184 191 214 216 202 202 202 195 223 226 212 237 246 236 248 240 215 225 244 249 256 227 201 201 220 227 211 202 200 198 201 199 189 188 189 188 189 186 181 186 189 183 176 174 173 171 170 167 162 162 164 162 163 167 172 180 193 206 216 213 232 286 292 295 301 297 293 292 292 303 306 308 310 310 311 307 305
184 190 190 189 195 210 208 189 182 186 192 209 215 204 207 215 207 218 230 223 235 238 216 214 231 250 268 260 239 244 259 254 211 196 231 230 205 198 197 200 201 194 189 188 187 190 187 179 188 194 182 174 177 174 172 171 167 164 164 165 167 168 171 178 185 196 209 213 218 239 271 275 273 289 285 277 287 295 302 304 306 309 307 304 303 304
186 189 183 186 190 198 209 205 186 188 195 207 222 222 218 230 231 228 234 232 241 244 205 171 168 245 257 289 266 245 322 307 290 203 209 236 223 205 196 195 201 200 191 188 188 190 190 181 185 192 182 176 181 178 176 174 167 165 167 168 172 172 175 184 189 197 207 211 221 234 253 263 261 276 276 265 275 284 292 300 302 303 300 298 300 302
193 187 172 188 195 190 205 211 191 195 203 202 219 223 217 224 234 247 255 255 271 278 211 173 202 248 251 174 182 217 200 236 267 249 210 220 228 225 209 196 198 201 194 190 188 189 194 185 180 186 182 179 187 184 179 177 171 169 170 172 176 176 181 189 192 196 201 211 223 228 239 252 254 257 254 249 254 269 287 300 302 300 296 294 295 297
203 188 168 187 199 190 207 216 194 207 215 184 205 227 223 223 239 249 246 242 260 272 248 218 235 234 242 236 195 183 195 202 206 227 224 216 214 223 223 201 195 200 197 193 188 186 193 183 171 182 187 186 191 190 184 180 176 173 172 174 178 179 185 190 192 196 196 207 224 225 230 243 249 247 249 252 254 267 280 289 295 297 295 292 291 291
220 194 159 178 198 190 206 217 199 217 234 199 193 217 215 226 267 277 263 221 223 249 251 238 249 240 234 246 174 157 186 208 195 204 216 214 211 219 226 209 197 201 201 199 191 183 187 177 165 177 191 195 192 187 189 187 178 175 175 176 179 181 186 188 190 196 194 205 226 227 227 236 243 244 247 248 247 258 273 281 290 297 299 296 291 287
216 204 153 176 196 186 198 215 202 213 238 250 241 215 211 210 222 238 251 241 222 236 247 229 233 249 249 219 156 156 188 213 202 201 210 222 215 213 226 219 201 199 201 201 192 181 182 176 169 175 187 200 197 188 191 191 181 178 177 178 182 182 185 189 190 194 198 208 223 225 227 233 234 238 240 240 245 255 265 276 286 296 300 300 295 290
199 211 169 180 189 180 192 215 207 197 215 247 278 239 221 225 219 206 205 242 250 239 252 247 229 245 262 201 165 151 151 197 237 214 202 234 229 209 220 224 207 200 194 190 192 190 181 174 174 175 183 201 203 191 190 192 187 182 178 178 183 182 184 190 190 194 200 210 219 218 223 229 225 228 234 235 244 254 265 282 290 292 294 296 296 292
203 207 203 190 183 182 195 207 213 205 192 210 240 230 215 217 237 227 196 220 249 253 257 266 255 248 68 91 118 100 107 197 249 236 200 225 241 223 218 218 211 202 184 176 189 191 176 174 176 175 185 203 202 189 189 195 193 186 179 179 184 184 186 191 192 195 199 205 214 219 223 225 221 224 232 236 243 255 270 279 280 283 285 286 290 290
216 200 207 198 183 194 209 200 210 220 203 192 209 226 227 218 220 230 217 216 234 255 256 256 259 228 98 96 110 105 120 208 237 260 224 208 229 242 231 216 207 202 192 182 181 179 176 180 177 175 195 210 202 189 191 193 190 186 182 182 185 187 190 193 193 193 196 202 211 221 224 225 225 225 231 239 245 257 269 272 270 275 276 277 284 287
222 218 214 203 192 213 221 204 205 222 227 214 205 216 228 225 217 224 232 226 223 241 246 248 259 219 104 105 117 104 57 347 350 300 281 244 229 234 235 223 201 196 200 189 178 180 183 179 174 180 200 208 197 188 190 187 185 187 185 182 184 188 191 194 192 188 191 201 211 220 223 223 227 229 234 241 246 257 275 280 271 268 273 282 289 289
213 227 224 217 208 214 223 214 202 211 233 238 216 210 219 222 215 218 236 243 233 235 238 241 246 212 104 96 91 88 40 302 246 218 246 282 280 250 236 233 200 187 196 193 185 188 184 176 181 190 196 196 188 185 187 185 184 187 185 184 186 188 190 193 193 188 191 200 211 219 222 223 225 231 239 244 249 257 272 279 279 289 301 294 288 287
201 221 222 226 222 203 210 220 201 196 218 238 233 222 224 228 221 212 219 229 224 226 232 244 244 204 99 91 89 82 296 301 265 194 188 222 278 281 255 232 205 191 194 193 189 190 187 185 189 188 186 186 182 182 185 184 183 184 183 186 191 190 188 189 194 196 196 203 213 217 219 224 229 235 241 246 254 262 270 281 291 301 294 283 284 291
202 208 213 222 229 210 201 210 207 203 211 224 235 233 227 230 233 228 221 213 206 221 233 249 255 166 122 130 143 172 207 299 287 256 236 212 225 260 264 238 214 203 201 197 190 188 192 192 185 178 179 181 180 182 182 180 181 181 179 186 194 191 184 184 191 197 201 210 218 219 220 225 232 239 243 247 254 261 268 278 286 290 292 298 303 299
203 214 217 214 232 241 227 211 209 218 221 216 224 234 234 232 232 235 240 232 220 226 232 243 264 246 200 202 219 226 214 225 258 266 270 255 230 233 242 244 236 220 212 208 198 192 189 183 178 178 179 180 180 179 178 177 179 178 178 185 190 187 187 189 192 196 203 215 223 226 227 228 233 240 245 249 256 262 267 276 287 296 302 303 297 291
202 228 224 211 225 248 253 233 216 218 225 220 215 223 232 234 232 231 238 239 235 240 238 225 243 255 254 258 272 286 291 287 276 267 267 267 259 245 218 213 234 237 224 212 204 200 188 178 179 179 177 178 177 175 175 175 177 178 179 181 182 190 198 196 193 198 204 212 222 228 230 232 236 241 244 248 255 262 268 276 287 290 290 289 286 289
225 234 231 220 223 239 249 248 237 228 229 229 224 223 225 228 231 232 236 237 234 242 245 181 191 250 260 268 273 285 300 297 285 275 274 275 271 264 238 206 210 228 228 213 204 201 189 181 180 176 176 176 173 172 173 174 178 179 173 173 186 198 202 195 193 201 204 209 219 224 226 231 237 240 242 245 253 260 266 274 281 283 287 288 286 290
233 232 226 231 228 226 233 240 242 241 236 234 234 232 230 228 226 226 233 238 237 241 239 208 212 245 258 268 276 283 295 295 291 285 278 276 271 266 255 227 210 219 224 215 206 202 193 185 180 176 178 176 173 174 173 173 178 171 159 177 200 202 198 195 194 199 205 212 219 221 222 227 234 238 239 242 251 261 267 272 276 284 291 291 288 292
218 224 220 234 238 230 230 231 233 239 242 240 239 237 236 236 232 228 231 236 239 243 237 224 227 243 251 264 273 276 271 244 265 266 265 272 272 265 259 248 230 222 220 213 205 199 193 188 182 180 181 178 176 175 172 174 173 159 161 192 203 195 194 198 197 200 207 215 220 221 223 227 234 237 238 241 250 260 268 271 274 283 289 289 291 293
209 230 230 239 247 245 247 243 237 241 245 245 245 242 239 238 240 240 236 235 242 246 234 222 234 249 257 265 266 263 230 241 260 269 273 276 273 266 262 260 253 240 229 218 206 199 195 190 185 185 183 179 176 174 174 174 165 158 177 199 197 190 195 197 198 203 209 216 220 221 225 231 237 241 242 245 252 259 266 271 274 279 284 287 291 294
215 234 231 230 235 242 246 243 240 244 246 243 240 241 240 238 240 242 237 234 243 257 248 238 250 268 278 274 270 267 266 272 282 290 293 293 286 279 269 263 263 257 243 226 211 204 201 195 189 187 183 178 175 174 174 171 162 166 186 194 188 191 197 195 199 206 212 217 219 220 226 233 239 245 247 248 253 259 264 269 272 275 281 286 291 295
215 234 235 220 226 243 241 236 237 241 240 240 243 246 246 245 246 247 245 239 232 237 262 270 279 285 282 265 265 273 275 280 287 288 290 290 283 275 266 258 256 253 243 230 214 206 204 202 197 190 183 178 175 173 170 168 165 172 184 186 186 194 199 199 203 208 214 218 218 221 229 233 237 244 249 251 253 257 261 265 268 272 280 286 288 292
215 225 236 226 226 243 243 234 233 236 238 244 258 264 258 254 255 257 258 257 249 239 247 258 262 262 264 266 266 269 269 271 276 279 279 277 269 261 259 254 244 237 233 221 209 202 200 201 198 193 186 178 172 168 167 167 169 173 179 185 190 194 198 202 206 212 219 221 219 220 225 229 236 243 251 256 254 254 259 261 259 265 277 282 283 285
233 227 231 234 237 243 242 231 229 243 258 247 252 264 255 248 251 253 254 254 255 253 244 243 245 245 252 262 259 258 268 276 278 272 261 257 253 248 249 249 236 225 219 211 204 195 193 197 194 190 186 177 168 165 166 168 170 174 181 189 194 197 198 201 208 218 223 223 221 222 222 226 235 243 251 258 259 257 259 258 253 259 271 273 275 279
245 248 237 232 234 236 241 238 230 233 241 224 224 238 242 242 239 241 249 246 242 246 241 233 243 247 251 265 262 257 291 291 279 265 246 228 223 236 247 252 241 219 204 201 196 186 189 196 189 180 178 174 169 166 166 167 172 179 187 194 198 200 200 201 210 220 225 224 224 224 223 226 235 243 248 257 262 262 262 258 253 257 263 265 270 275
231 246 251 245 235 229 244 248 238 236 237 224 214 207 214 240 242 226 242 236 214 227 244 242 246 249 246 258 259 250 305 278 271 267 234 192 187 205 222 230 218 191 186 189 184 179 184 187 177 172 174 172 166 164 165 170 176 183 192 200 202 202 204 208 216 223 223 224 227 229 228 232 240 243 244 252 260 262 263 262 260 259 259 263 271 276
230 230 238 245 239 229 238 244 241 245 245 230 228 220 215 230 232 190 226 234 203 215 240 240 237 236 234 243 241 202 249 267 276 307 101 160 191 189 186 199 186 166 172 177 174 174 176 173 170 171 171 166 162 164 169 175 182 189 196 204 208 210 211 214 219 224 223 223 228 233 234 239 247 247 245 252 261 261 261 267 269 262 257 263 272 275
234 229 225 235 242 240 242 246 245 250 251 238 251 249 217 205 193 185 226 247 204 209 240 231 211 213 232 249 246 227 246 264 291 337 355 224 223 170 161 179 165 155 165 170 166 166 165 164 166 168 166 162 163 166 172 180 191 199 202 205 212 217 220 221 222 223 224 224 228 233 237 243 249 247 247 254 261 259 258 266 270 266 264 268 274 277
233 235 231 234 240 241 243 248 248 249 253 198 235 234 194 190 202 216 239 281 73 108 84 133 205 233 255 264 256 244 254 264 275 295 278 243 202 155 163 171 160 161 169 164 156 157 161 165 169 168 164 163 165 169 178 188 197 206 209 209 215 223 227 229 227 224 225 228 230 234 241 247 245 244 254 264 263 255 256 263 264 266 272 275 277 277
230 234 234 235 239 241 244 251 250 247 299 31 226 212 196 209 217 223 293 349 330 246 114 171 230 265 289 286 280 277 276 271 268 272 266 247 192 166 174 168 164 170 163 150 149 156 162 166 170 170 167 167 172 178 188 195 201 213 219 217 220 227 229 230 234 234 229 225 229 237 242 239 231 235 256 265 260 249 253 259 261 267 274 276 276 274
228 235 238 234 237 240 242 253 259 254 168 185 213 198 194 217 214 75 30 343 259 267 287 237 250 282 293 290 291 291 285 280 273 261 252 237 171 182 183 167 168 168 151 148 157 164 166 166 170 173 171 173 184 193 200 204 208 219 232 235 233 233 233 233 234 233 226 225 233 241 237 222 221 236 251 257 257 254 255 259 265 271 273 271 272 269
224 241 253 249 255 254 244 245 263 332 95 138 164 133 150 187 45 40 340 307 314 284 281 277 281 293 294 289 288 291 288 282 272 257 245 198 181 213 194 167 169 166 157 162 167 169 170 169 170 177 181 187 201 207 206 207 209 214 226 235 235 234 234 233 229 227 231 234 233 226 214 204 222 255 257 253 257 259 259 261 265 269 269 266 264 265
246 289 302 299 293 293 296 101 98 87 82 107 119 116 101 83 60 21 338 322 311 297 293 291 290 290 287 282 280 281 280 274 262 245 235 214 201 202 186 166 165 166 169 172 167 168 173 169 173 189 193 184 185 185 179 199 223 228 229 232 235 237 237 236 232 227 223 213 196 193 195 189 205 247 252 247 256 265 268 271 270 271 276 274 265 265
199 328 300 292 300 69 80 92 100 89 54 92 114 90 41 42 43 26 8 348 336 330 314 301 299 297 291 285 283 278 271 267 254 236 235 226 198 179 172 164 159 164 175 165 150 164 179 175 183 196 179 85 50 50 87 261 271 262 254 250 249 251 248 238 223 202 182 173 178 193 198 189 197 221 229 231 262 276 274 275 278 279 280 277 274 275
159 195 232 239 213 156 209 233 197 127 64 13 61 54 35 23 19 21 11 349 341 327 307 302 303 295 286 278 273 268 264 261 248 230 226 217 181 160 157 148 138 141 143 122 115 143 173 183 196 195 151 101 57 322 2 278 262 257 260 268 264 239 206 193 186 176 168 171 188 198 192 186 197 218 243 271 287 284 278 281 291 291 283 278 281 287
121 218 252 245 232 217 223 230 218 128 161 114 70 49 31 14 8 12 8 350 332 311 300 301 294 285 281 275 267 265 265 260 245 220 201 173 130 135 146 136 124 120 118 113 111 117 125 144 184 185 145 141 178 188 170 227 247 251 265 286 286 265 193 182 186 186 181 180 184 180 173 177 197 235 284 287 279 279 283 290 297 299 300 301 298 295
117 220 255 258 258 251 208 148 58 247 204 152 87 48 22 8 3 4 2 352 340 331 321 307 292 283 281 277 269 267 271 265 234 161 149 117 93 121 161 135 119 113 111 108 102 98 97 101 110 113 110 116 126 122 97 43 322 316 315 307 297 268 201 188 190 192 183 177 181 179 174 200 255 256 263 267 269 276 278 271 276 286 302 313 303 295
261 258 245 240 255 259 132 73 25 294 227 139 54 25 7 5 2 357 359 358 352 349 337 316 305 306 303 298 298 289 266 252 183 151 160 152 123 137 167 131 115 112 112 109 103 99 98 97 98 104 107 103 96 88 67 52 31 341 323 327 345 243 204 193 192 197 197 205 221 218 213 240 263 258 259 271 282 287 259 228 253 273 282 289 294 300
308 302 292 273 270 326 62 52 17 347 336 355 5 357 354 1 356 347 355 358 349 347 341 329 323 320 314 326 337 321 252 229 205 173 147 130 120 122 152 118 101 98 111 121 119 116 111 109 110 111 108 100 92 89 67 36 28 359 340 350 21 235 209 195 198 216 235 248 253 245 237 248 262 273 280 278 276 275 260 210 212 265 290 297 302 315
Height
741 758 766 764 760 755 749 743 742 740 739 750 759 760 761 771 778 772 767 760 758 776 779 776 786 789 788 787 781 779 778 781 785 786 787 788 791 795 796 797 798 800 799 799 802 804 807 808 810 811 813 814 816 818 819 821 822 824 825 826 827 828 829 829 830 831 832 833 834 835 835 835 834 835 835 834 833 832 833 835 834 833 833 833 832 832
745 764 764 752 746 743 742 741 738 738 740 746 755 761 760 765 769 759 759 760 756 773 780 774 785 789 785 785 779 778 782 784 784 786 787 786 788 791 793 796 797 797 795 797 802 803 805 807 808 810 811 813 815 817 819 820 822 823 824 825 826 827 828 829 829 830 831 832 833 833 833 833 833 833 834 834 833 832 831 832 832 832 832 832 831 831
760 763 753 740 736 735 740 741 741 746 751 752 751 759 763 759 759 756 753 756 758 773 781 778 785 786 780 780 778 777 781 781 779 781 784 784 786 789 791 793 794 795 795 796 800 801 802 804 806 809 809 811 813 815 817 819 820 822 823 824 825 826 827 828 829 829 830 831 832 832 832 832 832 832 832 833 833 832 831 831 830 830 830 831 830 830
771 760 741 734 733 735 742 742 745 752 757 758 752 756 761 750 756 767 760 757 761 766 771 777 784 781 778 779 778 776 775 775 776 776 778 780 783 785 785 787 789 792 795 797 797 797 799 801 803 806 807 809 811 813 815 817 819 821 822 823 824 826 827 827 828 829 829 830 830 831 831 831 831 831 831 832 832 832 831 831 830 830 830 830 830 829
761 748 731 731 733 738 749 749 752 759 761 760 753 751 755 747 751 763 759 756 762 764 762 773 789 789 786 788 785 777 773 774 776 776 778 779 779 781 781 783 785 788 791 794 795 794 796 799 801 804 806 807 809 811 813 815 817 819 821 822 823 825 826 827 827 828 828 829 829 830 830 830 830 831 831 831 832 831 831 830 830 830 830 829 829 828
747 734 727 734 736 741 754 755 754 759 762 761 754 745 743 741 746 754 754 759 778 785 768 771 805 813 798 796 795 784 779 780 778 779 783 781 779 780 781 782 783 784 787 789 791 792 793 796 799 802 804 806 808 809 811 813 815 818 819 821 823 824 825 826 827 827 828 828 829 829 829 829 829 830 830 831 831 831 831 830 829 829 829 828 828 827
735 724 725 735 740 746 755 755 750 750 760 762 749 740 737 736 744 751 751 766 791 794 767 763 801 819 806 800 794 785 784 786 783 782 784 782 782 781 780 781 781 782 785 787 788 788 791 794 797 800 802 804 806 808 810 813 814 816 818 820 822 823 824 825 826 827 827 828 828 829 829 829 829 829 830 831 831 830 830 830 829 829 828 827 827 826
729 728 733 738 744 752 757 755 746 742 759 760 737 734 743 745 752 752 752 769 779 773 763 761 780 804 807 796 785 781 787 789 786 784 783 781 782 781 778 778 778 779 781 784 787 787 789 792 795 798 801 802 805 808 810 812 814 816 817 819 821 822 824 825 826 826 827 828 828 828 828 829 829 829 830 830 829 829 830 830 829 828 828 827 826 825
725 736 741 742 748 753 752 746 738 739 753 753 734 732 741 747 753 751 756 769 766 770 784 776 776 802 808 786 775 779 785 789 787 783 781 780 779 779 778 776 776 776 777 780 783 785 787 790 794 797 799 802 804 807 809 811 813 815 816 819 820 822 823 824 825 826 827 827 828 828 828 828 829 829 829 829 828 829 829 828 828 827 827 826 825 824
725 731 730 737 747 747 742 732 727 738 746 740 736 736 739 746 751 751 760 765 765 783 799 785 780 806 812 785 774 779 782 784 782 777 776 774 774 775 774 774 774 774 775 777 779 782 784 789 792 795 798 801 803 806 809 810 812 814 816 818 819 821 822 824 825 826 826 827 827 828 828 828 828 828 828 828 828 828 828 827 827 826 826 825 825 824
719 719 719 728 734 729 728 724 720 730 735 733 740 747 751 754 752 756 759 761 777 795 794 778 772 792 808 789 768 769 772 770 770 772 772 768 767 770 770 770 771 773 774 774 777 780 783 787 791 794 797 800 802 805 808 810 812 814 815 817 819 820 821 823 824 825 825 826 827 827 827 828 828 828 828 828 827 827 827 826 826 825 825 824 824 823
722 727 726 722 718 716 723 730 727 727 731 738 746 753 764 769 767 774 773 775 800 806 784 767 758 774 802 789 758 752 753 753 759 763 763 762 763 764 765 766 765 769 772 772 775 778 780 785 788 792 796 799 801 804 806 808 811 812 814 816 818 819 820 822 823 824 824 825 826 826 827 827 827 827 827 827 827 826 826 826 825 825 824 824 823 822
735 735 729 722 717 716 729 742 742 737 738 746 749 757 778 789 792 801 795 792 805 797 772 759 756 770 784 770 751 747 744 744 747 749 749 752 755 757 760 761 761 763 768 769 773 776 778 782 786 790 795 798 800 802 804 807 809 811 813 815 816 818 819 821 822 822 823 824 825 825 826 826 827 827 827 826 826 826 826 825 825 824 824 823 822 821
749 739 728 731 729 719 726 744 754 753 749 752 752 760 781 794 807 817 805 796 798 783 761 754 764 780 778 757 743 741 738 734 732 737 742 742 744 749 752 755 757 758 763 766 769 772 775 779 785 788 792 797 800 802 803 805 807 810 812 813 815 816 818 819 820 821 822 823 823 824 825 825 826 826 826 826 825 825 825 825 825 824 823 822 821 820
759 757 736 736 736 725 724 731 739 744 747 748 740 746 767 777 792 804 797 794 794 778 762 760 775 789 782 759 739 732 734 733 730 732 737 739 739 741 744 750 754 754 757 763 766 769 771 775 783 788 791 796 800 801 802 803 806 808 810 812 813 814 816 818 819 820 821 822 823 823 824 825 825 825 825 825 825 825 825 824 824 823 822 822 821 820
751 755 729 723 723 721 728 721 717 734 749 744 732 745 762 757 762 777 777 775 779 781 775 773 778 770 756 745 734 734 738 737 738 736 737 742 741 740 744 746 750 752 753 758 763 766 768 771 780 786 790 796 799 800 800 801 804 806 808 810 811 813 815 816 817 819 819 821 822 822 823 824 824 824 824 824 824 824 824 824 823 823 822 821 820 820
747 744 720 719 720 715 723 718 712 730 745 742 744 753 744 729 741 766 773 763 771 791 783 770 771 759 749 745 732 735 744 740 742 743 740 743 743 743 745 743 746 749 750 754 759 764 766 770 777 784 789 795 798 798 797 799 802 804 806 808 809 811 813 814 816 817 818 820 821 822 822 823 823 823 823 823 823 823 823 823 822 822 821 820 820 819
729 735 719 721 731 718 710 714 714 716 722 737 752 744 727 730 742 757 776 779 786 801 784 765 771 766 766 763 739 737 749 745 742 743 741 742 743 746 745 742 745 747 749 753 755 761 765 769 775 783 790 795 796 794 795 798 801 802 804 805 807 809 810 813 814 815 817 818 819 821 821 822 822 822 822 822 822 823 822 822 822 821 820 820 819 818
713 736 731 719 728 721 707 718 730 721 712 722 732 723 728 758 769 768 783 791 796 804 788 769 768 763 763 761 748 748 752 746 742 741 742 743 743 746 745 741 744 747 750 752 753 759 764 768 773 780 789 794 793 792 794 798 800 800 802 803 805 807 809 811 813 814 816 817 818 819 820 821 821 821 822 822 822 822 821 821 821 820 820 819 819 818
705 738 746 721 715 721 720 729 744 741 726 722 725 722 728 748 760 764 773 779 785 794 788 777 772 764 751 740 741 748 746 743 745 742 743 743 739 741 743 741 741 743 747 749 751 756 760 767 773 777 784 790 790 790 792 797 799 797 798 801 803 805 807 809 811 812 814 815 817 818 819 819 820 820 821 821 821 821 821 821 820 820 819 818 818 817
702 729 747 728 713 727 738 735 737 740 738 740 746 746 742 741 744 752 760 763 768 781 787 787 784 768 743 729 734 741 740 740 742 740 742 741 736 736 737 738 739 740 744 747 750 754 758 766 772 774 779 784 785 787 790 795 796 793 795 799 800 803 805 807 809 811 812 813 815 816 817 818 818 819 820 819 820 820 820 820 819 819 818 817 817 816
709 723 738 736 728 737 739 724 719 723 725 735 746 746 744 742 748 766 774 760 755 768 777 783 787 767 738 729 732 735 736 735 734 736 738 737 735 735 733 734 736 738 742 745 749 754 758 763 767 769 774 778 780 782 785 788 790 789 792 795 798 800 802 805 807 809 811 812 813 814 815 816 817 817 818 818 819 819 818 818 817 816 816 815 815 814
703 714 729 737 733 731 724 710 710 713 709 716 728 731 733 735 744 770 781 764 756 763 760 767 781 764 734 726 729 731 733 732 732 735 736 735 734 733 732 731 733 736 739 740 745 750 752 757 762 765 770 774 776 778 780 782 784 786 788 791 795 797 799 802 804 806 809 810 811 813 814 815 815 816 816 816 817 817 816 815 814 814 813 813 813 812
704 718 731 738 730 720 712 703 701 705 711 719 721 719 725 731 733 746 755 751 759 768 763 773 785 765 736 726 726 731 733 732 732 734 736 737 733 731 732 731 732 736 738 739 743 745 747 753 758 761 765 769 772 774 776 778 780 783 785 788 792 794 797 799 801 804 806 808 809 811 812 813 813 814 814 814 814 814 813 812 811 811 811 812 811 810
713 726 733 744 748 743 738 731 721 718 724 729 724 717 719 722 724 733 737 744 764 771 767 779 785 765 743 733 731 734 735 733 732 730 732 736 735 733 732 731 733 735 737 739 742 743 745 749 753 756 760 764 768 771 773 775 778 780 783 786 788 791 794 797 800 802 804 805 807 808 810 811 812 812 812 812 812 812 811 810 810 810 810 810 809 808
709 724 730 745 760 761 760 756 743 735 733 732 727 721 718 719 723 732 738 752 770 770 763 771 773 759 747 740 738 737 737 738 736 731 730 732 734 734 732 732 734 735 737 738 739 741 743 744 748 751 756 761 764 767 769 773 776 778 782 785 786 789 792 795 798 799 801 803 804 806 808 809 810 810 810 810 810 810 809 809 809 809 808 808 807 806
706 720 722 735 746 742 738 735 728 728 733 736 734 727 721 719 720 727 741 751 758 761 763 760 756 757 754 744 739 736 735 738 738 734 733 731 731 732 732 734 734 735 737 736 737 739 740 741 745 749 754 758 760 763 766 770 773 777 780 783 786 789 791 793 796 797 799 801 802 804 805 806 807 808 808 808 808 808 808 808 808 807 807 807 806 805
716 727 719 722 731 724 718 716 714 719 725 727 730 729 725 721 719 728 741 742 741 756 765 752 747 759 756 741 738 736 733 735 736 735 734 731 729 729 730 734 737 738 738 735 736 737 738 741 745 747 751 755 757 761 764 768 772 774 778 781 785 789 791 792 794 796 798 799 800 802 803 804 805 805 806 806 806 807 807 807 807 807 807 806 804 803
720 728 715 715 725 721 715 712 708 709 713 714 719 722 720 719 722 728 733 730 733 750 757 748 751 759 750 738 737 733 730 733 733 730 729 727 727 727 728 732 737 740 739 736 736 735 736 741 744 746 750 752 755 759 762 766 770 772 777 781 785 787 788 790 792 794 796 797 798 800 801 802 803 803 804 805 804 805 805 806 806 805 805 804 802 801
715 723 715 717 724 720 716 713 707 706 712 714 715 714 712 714 717 721 725 723 724 733 736 739 750 751 739 735 733 727 725 728 728 728 728 727 728 727 727 730 733 736 736 735 735 734 735 738 741 745 749 751 753 757 759 764 767 770 776 782 785 785 785 788 790 792 794 795 796 798 799 800 802 802 802 802 803 803 803 804 804 803 803 802 801 800
712 722 715 714 721 718 711 707 705 709 715 717 714 709 707 710 712 714 718 718 721 728 728 732 746 745 730 725 726 723 724 728 731 732 730 728 728 726 726 726 727 730 731 731 732 733 733 736 739 742 745 748 751 754 757 761 764 768 774 779 780 781 783 786 788 790 792 793 795 796 797 798 799 800 800 801 801 801 801 801 801 801 801 800 799 798
716 723 715 716 732 731 715 709 712 714 717 720 717 711 708 711 713 711 711 714 720 728 732 738 748 744 728 721 723 723 724 729 732 731 729 728 725 724 725 726 726 726 726 726 728 730 732 733 735 738 741 744 747 751 754 758 761 768 774 775 775 777 781 783 785 788 790 791 793 794 795 797 797 798 799 799 799 799 799 799 799 799 798 797 796 796
716 723 720 726 744 742 723 717 721 725 734 733 719 709 706 706 707 707 707 709 712 720 733 742 741 731 722 722 727 728 728 730 729 727 728 728 725 724 725 725 726 725 723 723 724 727 729 729 730 733 736 739 743 747 751 754 760 768 772 771 772 775 778 780 782 785 787 788 791 791 793 795 795 796 797 797 797 797 796 797 797 796 796 795 794 793
713 719 720 726 743 745 728 719 727 744 754 738 707 694 696 699 704 709 710 710 711 717 726 731 727 722 721 724 729 731 729 727 726 724 723 724 724 725 724 723 723 722 720 720 720 723 726 726 728 731 733 736 740 744 749 753 759 766 768 768 770 773 776 778 780 782 784 786 787 788 790 792 793 794 794 794 795 795 794 794 794 794 794 793 792 791
712 717 719 722 734 738 726 727 750 763 747 718 697 690 692 696 701 707 710 710 711 717 722 725 725 724 722 723 724 725 724 722 721 720 719 719 720 722 722 721 720 719 719 718 718 720 722 724 727 731 733 735 738 743 747 751 756 761 764 766 769 771 773 776 778 780 782 783 784 785 787 789 790 791 791 792 792 792 792 792 791 792 792 791 790 789
709 715 718 721 728 734 733 742 761 757 726 707 705 702 698 703 707 714 722 720 713 715 720 724 724 721 720 721 719 719 719 718 719 718 716 715 715 716 719 718 716 716 716 715 716 717 719 721 725 730 734 736 738 741 746 749 753 757 761 764 767 769 772 774 776 778 779 780 781 782 784 785 787 788 789 789 789 789 789 789 789 789 790 789 788 787
705 712 718 723 727 732 739 740 739 740 732 724 719 710 704 709 711 718 732 728 713 711 715 718 721 720 719 719 717 715 717 721 725 720 710 708 711 712 713 711 710 711 712 712 713 715 718 721 723 728 734 736 737 740 744 748 752 755 759 762 764 766 769 772 773 774 776 777 778 779 780 782 783 785 786 787 787 787 786 786 786 787 787 787 786 785
702 710 718 728 728 727 737 740 738 749 750 732 718 707 700 701 700 706 727 731 715 709 711 714 719 720 719 721 718 717 722 732 735 722 706 704 708 709 710 709 706 708 709 710 712 715 718 720 722 726 731 733 736 740 743 747 751 754 757 759 761 763 766 768 770 771 772 774 776 777 778 779 781 782 783 784 785 784 783 783 783 783 784 784 784 783
703 706 712 726 729 726 736 744 746 750 739 719 709 701 695 696 695 704 733 739 717 706 707 709 714 718 719 720 718 720 731 740 735 719 706 705 705 705 709 709 706 707 710 711 712 715 717 720 723 726 730 732 736 739 742 746 749 752 755 757 758 761 762 764 766 768 770 772 773 775 776 777 779 779 780 781 782 781 781 781 781 781 781 782 781 781
710 710 714 727 732 728 734 739 736 731 720 706 702 696 690 690 695 721 755 747 712 701 704 705 711 716 716 717 718 722 732 736 728 716 707 705 704 704 707 708 707 708 710 711 713 715 718 721 724 727 729 732 736 739 742 746 748 751 753 755 757 758 759 761 764 766 768 770 771 772 773 775 777 777 778 779 779 778 780 780 779 779 779 779 779 778
717 714 716 726 732 730 734 737 730 720 709 701 698 693 688 694 711 740 755 732 706 704 706 705 711 714 711 715 719 721 722 719 713 709 705 702 704 707 707 707 708 709 709 711 713 716 719 722 724 727 729 733 736 739 742 745 747 749 751 753 755 757 758 760 762 764 766 767 768 770 771 772 774 775 776 777 776 776 778 778 777 777 777 777 777 776
721 720 718 722 728 729 730 731 729 722 708 697 696 691 691 710 734 740 728 710 704 707 705 706 711 711 710 714 715 714 713 707 703 705 704 702 705 708 707 707 707 708 709 711 715 717 719 721 724 727 730 733 736 739 741 744 746 748 750 751 753 755 756 759 761 762 763 765 766 767 768 770 772 772 773 775 774 775 776 776 776 775 774 774 774 773
713 721 722 717 719 726 731 733 738 734 714 696 699 704 706 719 730 724 712 707 706 704 705 708 710 709 711 714 712 710 709 705 703 705 703 703 706 709 708 707 707 708 709 712 716 717 718 721 724 726 729 733 736 739 741 743 745 747 749 750 751 753 755 756 758 759 761 763 764 765 767 768 770 771 772 772 772 773 774 774 774 773 773 773 772 771
706 715 721 715 712 722 734 737 736 728 708 695 705 717 716 712 712 710 711 712 707 705 708 709 709 709 711 713 712 711 710 708 705 704 704 707 712 713 710 707 707 708 710 712 715 716 718 721 723 726 729 732 735 737 739 741 744 746 748 748 749 751 753 754 755 756 758 760 761 763 766 767 768 770 771 770 771 772 772 772 772 771 771 770 769 768
708 708 714 716 713 716 724 725 718 712 704 699 705 711 709 705 705 707 710 711 710 709 709 709 710 709 708 709 711 711 711 709 705 704 706 709 711 712 710 707 708 709 709 711 715 717 719 722 725 727 729 732 735 738 739 741 744 746 747 748 749 750 751 752 753 754 755 758 760 763 764 765 765 768 770 769 769 770 770 770 769 769 769 768 767 766
703 702 708 713 713 713 715 712 708 709 708 703 702 704 704 705 706 707 710 712 711 710 708 709 710 708 706 708 709 710 710 707 704 705 707 707 707 709 709 708 709 710 711 712 716 718 720 724 727 728 730 735 738 740 741 743 745 747 749 749 749 749 750 751 753 755 756 758 760 762 763 763 764 766 768 768 768 768 768 768 767 767 767 767 766 764
700 701 706 710 715 723 725 715 707 710 711 706 705 707 707 708 708 708 711 713 711 709 708 708 708 708 707 707 708 709 709 705 704 706 706 705 707 710 711 711 711 712 714 716 719 721 722 724 727 728 732 737 740 741 743 745 748 749 749 748 747 748 750 752 754 756 757 758 759 761 762 762 763 765 765 765 766 767 766 766 766 765 764 764 764 763
706 707 709 710 713 720 722 714 706 709 710 707 710 714 714 714 713 710 710 711 709 708 707 705 706 707 706 705 704 706 705 703 702 705 706 708 710 712 715 715 714 715 719 721 722 724 725 727 729 730 733 738 741 743 745 746 747 747 746 745 746 748 750 752 754 755 756 757 758 759 761 762 763 764 764 764 765 765 765 765 765 764 763 763 763 763
709 712 713 713 714 714 716 715 713 715 713 710 713 717 717 716 715 713 712 711 709 708 708 706 704 703 703 703 701 703 706 705 703 706 711 714 716 718 720 718 717 719 722 723 725 726 727 729 732 733 735 739 741 743 744 744 745 744 743 745 746 748 750 752 753 755 756 756 757 759 760 762 762 762 763 763 763 764 764 763 763 763 763 763 762 762
709 714 710 714 721 722 722 723 723 724 722 719 718 720 718 715 715 715 714 713 712 712 711 708 705 702 702 701 700 704 708 707 705 709 715 718 721 724 724 720 719 721 723 724 727 728 728 731 733 735 738 740 741 742 743 744 745 745 744 745 747 748 751 752 753 755 755 755 756 757 758 760 760 760 761 762 762 762 762 762 762 762 762 762 761 762
712 716 712 717 724 724 723 724 724 725 726 722 719 719 717 714 716 717 716 715 714 712 711 710 708 708 707 705 704 708 713 712 709 710 715 720 724 726 726 723 721 722 725 726 727 728 730 733 735 737 740 741 742 743 744 744 745 746 746 747 748 750 752 753 754 755 755 754 755 755 756 758 759 759 759 760 760 761 761 761 761 761 761 762 762 762